SL-16 R/B

Last updated on Tue Sep 22 2026 00:02:20 GMT+0000 (Coordinated Universal Time)

1 31793U 07029B 26264.06819591 -.00000289 00000+0 -12484-3 0 9992 2 31793 70.9740 121.6764 0002147 279.5499 240.7838 14.14861891993004
UTC large
Height (km)
Speed (km/s)
/
Latitude / Longitude
Inclination (degrees)
Orbital Period (minutes)
Azimuth
Elevation
Range (km)
Doppler Factor

Next 0 passes for location: London (51.5072 / 0.1276)

No passes found over London.
SL-16 R/B